Regional Weather Roundup
Issued by NWS Goodland, KS

Home | Current Version | Previous Version | Text Only | Print | Product List | Glossary On
Versions: 1 2 3 4 5 6 7 8 9 10 11 12 13 14 15 16 17 18 19 20 21 22 23 24 25 26 27 28 29 30 31 32 33 34 35 36 37 38 39 40 41 42 43 44 45 46 47 48 49 50
000
ASUS43 KGLD 211308
RWRGLD

GOODLAND FORECAST AREA HOURLY WEATHER ROUNDUP
NATIONAL WEATHER SERVICE GOODLAND KS
700 AM MDT THU AUG 21 2014

...OFFICIAL OBSERVATIONS...

CITY           SKY/WX    TMP DP  RH WIND       PRES   REMARKS
GOODLAND KS    PTCLDY    65  58  78 NW6       29.93R
HILL CITY KS   MOSUNNY   74  67  78 SW5       29.84R
IMPERIAL NEB   PTCLDY    69  59  70 N9        29.90S
MCCOOK NEB     MOSUNNY   73  60  63 N9        29.86R
AKRON CO       PTCLDY    63  56  78 NW10      30.03R
BURLINGTON CO  PTCLDY    63  56  78 NW7       29.97R
LIMON CO       PTCLDY    56  54  93 W9        30.08R
$$

...UNOFFICIAL OBSERVATIONS...

CITY           SKY/WX    TMP DP  RH WIND       PRES   REMARKS
COLBY KS       SUNNY     70  64  83 N8        29.89F
LENORA KS        N/A     71  32  23 CALM        N/A
NORTON KS      SUNNY     70  63  78 N8        29.83F
SHARON SPRINGS   N/A     66  58  76 CALM        N/A
WAKEENEY KS      N/A     76  61  59 MISG        N/A
KIT CARSON CO    N/A     66  56  70 MISG        N/A
YUMA CO          N/A     62  58  86 NW9         N/A
$$



USA.gov is the U.S. government's official web portal to all federal, state and local government web resources and services.